Showing default

COSMOS 2270, 23001

Orbit data source: Space-Track

COSMOS 2270, 23001 is a payload satellite owned by VKS (CIS) in LEO that was launched on Sat, 12 Feb 1994 UTC via a TSIKLON-3 launch vehicle from the Plesetsk Missile And Space Complex (PKMTR). Payload-class satellites include a variety of spacecraft equipped with specific instruments for various scientific and technological missions. These include communications satellites like Starlink; space stations such as the ISS; scientific satellites like the Hubble; Earth observation satellites from companies like Planet Labs, Umbra, and HawkEye 360; GPS; miniature CubeSats for education and research; and military/defense satellites.

Loading next visibility...
Identifier
23001, 1994-011C
Orbit
LEO
Country
Flag of CISCIS
Related business
Manufacturer
NPO PM
Mission
Defense Communications
Bus & Motor
STRELA-3, Unknown motor
Mass
225 kg wet, 225 kg dry
Launch date (UTC)
1994-02-12 (32 years ago)
Launch vehicle
TSIKLON-3
Launch site
Plesetsk Missile And Space Complex (PKMTR)
Object type
Payload
Rocket body
Debris
Shape & HBR
Cyl, 0.8 m
Radar Cross Section
1.257 m², Large (>1 m²)

Expand to show TLE details & history
Last TLE update: 9 hours ago

TLE from 9 hours ago
0 COSMOS 2270
1 23001U 94011C   25304.80439064  .00000058  00000-0  26045-3 0  9992
2 23001  82.5695  99.8229 0006920 343.4525 141.1904 12.62927900461824
Epoch: 2025-10-31T19:18Z
TLE epoch observation values (Epoch: 2025-10-31T19:18:19.351Z)
Latitude
54.71016°
Longitude
-60.66667°
Altitude
1,424.06 km
Speed
7.152 km/s
True Right ascension
17h 57m 01s
True Declination
54° 33' 42"
Sunlit
Object was in daylight at epoch
Visualization orbit readout
Latitude
Unknown
Longitude
Unknown
Altitude
Unknown
Speed
Unknown
Apparent Right ascension
Unknown
Apparent Declination
Unknown
Sunlit
N/A
Visualization observer readout
Local Sidereal Time
23:42:12
Azimuth
Unknown
Elevation
Unknown
Doppler factor
Unknown
Orbital elements
Apogee altitude
1,413.591 km
Perigee altitude
1,402.815 km
Semi-major axis
7,786.34 km
Eccentricity
0.00069
Inclination
82.5695°
RAAN
99.8229°
Arg. of periapsis
343.4525°
True anomaly
141.24006°
Mean anomaly
141.1904°
Eccentric anomaly
141.21524°
Mean motion
3.15895 °/min
Orbital period
113.96 mins
BSTAR
0.00026045
Loading maneuver chart data...
Computing Atmospheric mass density...
Loading historical data...
Loading historical data...
Loading historical data...
Loading historical data...
Loading historical data...
Loading historical data...
Loading historical data...

Documentation

Showing up to 5 results
|